• In Belarus
  • List of Countries
  • For 7 days
  • Water Temperature
  • Satellite Maps
  • Weather Map
  • Weather Widgets
  • user-avatar
    Login

    Hourly Weather Lavrovo

    Today, 18 July, Wednesday

    Time Temperature Precipitation Wind Pressure Humidity
    00:00 +19°C° 0.1 mm 2 mps 731 mmHg 96%
    01:00 +19°C° 0.1 mm 2 mps 731 mmHg 97%
    02:00 +19°C° 0.1 mm 2 mps 731 mmHg 97%
    03:00 +19°C° 0 mm 3 mps 731 mmHg 97%
    04:00 +19°C° 0 mm 3 mps 731 mmHg 97%
    05:00 +19°C° 0 mm 4 mps 730 mmHg 97%
    06:00 +20°C° 0 mm 4 mps 730 mmHg 95%
    07:00 +20°C° 0 mm 5 mps 730 mmHg 93%
    08:00 +21°C° 0 mm 5 mps 730 mmHg 91%
    09:00 +21°C° 0.2 mm 5 mps 730 mmHg 90%
    10:00 +21°C° 0.2 mm 5 mps 730 mmHg 90%
    11:00 +21°C° 0.2 mm 5 mps 730 mmHg 89%
    12:00 +22°C° 0.4 mm 6 mps 730 mmHg 87%
    13:00 +23°C° 0.4 mm 6 mps 730 mmHg 86%
    14:00 +23°C° 0.4 mm 6 mps 729 mmHg 84%
    15:00 +23°C° 0.2 mm 6 mps 729 mmHg 84%
    16:00 +23°C° 0.2 mm 5 mps 729 mmHg 84%
    17:00 +23°C° 0.2 mm 5 mps 729 mmHg 85%
    18:00 +22°C° 0 mm 4 mps 729 mmHg 88%
    19:00 +21°C° 0 mm 4 mps 729 mmHg 91%
    20:00 +20°C° 0 mm 3 mps 729 mmHg 94%
    21:00 +19°C° 0 mm 3 mps 729 mmHg 95%
    22:00 +19°C° 0 mm 3 mps 729 mmHg 96%
    23:00 +18°C° 0 mm 3 mps 729 mmHg 97%

    Tomorrow, 19 July, Thursday

    Time Temperature Precipitation Wind Pressure Humidity
    00:00 +18°C° 0 mm 2 mps 729 mmHg 97%
    01:00 +18°C° 0 mm 2 mps 729 mmHg 98%
    02:00 +18°C° 0 mm 2 mps 729 mmHg 98%
    03:00 +18°C° 0.1 mm 2 mps 729 mmHg 98%
    04:00 +18°C° 0.1 mm 2 mps 729 mmHg 97%
    05:00 +19°C° 0.1 mm 2 mps 729 mmHg 97%
    06:00 +19°C° 0.1 mm 2 mps 729 mmHg 96%
    07:00 +20°C° 0.1 mm 3 mps 730 mmHg 94%
    08:00 +20°C° 0.1 mm 3 mps 730 mmHg 93%
    09:00 +21°C° 0.2 mm 3 mps 730 mmHg 90%
    10:00 +22°C° 0.2 mm 3 mps 730 mmHg 86%
    11:00 +24°C° 0.2 mm 3 mps 730 mmHg 83%
    12:00 +25°C° 0.4 mm 2 mps 730 mmHg 80%
    13:00 +25°C° 0.4 mm 2 mps 730 mmHg 78%
    14:00 +26°C° 0.4 mm 2 mps 730 mmHg 75%
    15:00 +26°C° 1.1 mm 2 mps 730 mmHg 77%
    16:00 +26°C° 1.1 mm 2 mps 730 mmHg 78%
    17:00 +26°C° 1.1 mm 2 mps 730 mmHg 79%
    18:00 +24°C° 0.1 mm 2 mps 731 mmHg 83%
    19:00 +23°C° 0.1 mm 1 mps 731 mmHg 87%
    20:00 +22°C° 0.1 mm 1 mps 731 mmHg 91%
    21:00 +21°C° 0 mm 1 mps 731 mmHg 92%
    22:00 +21°C° 0 mm 1 mps 731 mmHg 93%
    23:00 +20°C° 0 mm 1 mps 731 mmHg 94%

    Day after tomorrow, 20 July, Friday

    Time Temperature Precipitation Wind Pressure Humidity
    00:00 +20°C° 0 mm 1 mps 731 mmHg 94%
    01:00 +20°C° 0 mm 1 mps 731 mmHg 95%
    02:00 +20°C° 0 mm 1 mps 732 mmHg 95%
    03:00 +20°C° 0 mm 1 mps 732 mmHg 95%
    04:00 +20°C° 0 mm 1 mps 732 mmHg 95%
    05:00 +21°C° 0 mm 1 mps 732 mmHg 95%
    06:00 +22°C° 0 mm 1 mps 732 mmHg 91%
    07:00 +23°C° 0 mm 1 mps 732 mmHg 87%
    08:00 +25°C° 0 mm 2 mps 733 mmHg 83%
    09:00 +25°C° 0.5 mm 2 mps 733 mmHg 80%
    10:00 +26°C° 0.5 mm 1 mps 733 mmHg 76%
    11:00 +27°C° 0.5 mm 1 mps 733 mmHg 73%
    12:00 +27°C° 1.7 mm 1 mps 733 mmHg 74%
    13:00 +27°C° 1.7 mm 1 mps 733 mmHg 75%
    14:00 +27°C° 1.7 mm 1 mps 732 mmHg 76%
    15:00 +26°C° 1.3 mm 1 mps 733 mmHg 79%
    16:00 +26°C° 1.3 mm 1 mps 733 mmHg 81%
    17:00 +25°C° 1.3 mm 1 mps 733 mmHg 84%
    18:00 +24°C° 0 mm 1 mps 733 mmHg 87%
    19:00 +23°C° 0 mm 1 mps 733 mmHg 89%
    20:00 +22°C° 0 mm 1 mps 733 mmHg 91%
    21:00 +21°C° 0 mm 2 mps 733 mmHg 92%
    22:00 +20°C° 0 mm 2 mps 733 mmHg 93%
    23:00 +20°C° 0 mm 2 mps 733 mmHg 93%

    21 July, Saturday

    Time Temperature Precipitation Wind Pressure Humidity
    00:00 +19°C° 0.2 mm 2 mps 733 mmHg 94%
    01:00 +19°C° 0.2 mm 2 mps 733 mmHg 94%
    02:00 +19°C° 0.2 mm 2 mps 733 mmHg 95%
    03:00 +19°C° 0 mm 2 mps 733 mmHg 95%
    04:00 +19°C° 0 mm 2 mps 733 mmHg 96%
    05:00 +19°C° 0 mm 2 mps 733 mmHg 96%
    06:00 +21°C° 0 mm 2 mps 733 mmHg 92%
    07:00 +22°C° 0 mm 3 mps 733 mmHg 89%
    08:00 +24°C° 0 mm 3 mps 734 mmHg 85%
    09:00 +25°C° 0.2 mm 3 mps 734 mmHg 81%
    10:00 +26°C° 0.2 mm 3 mps 734 mmHg 76%
    11:00 +27°C° 0.2 mm 3 mps 734 mmHg 71%
    12:00 +28°C° 0.5 mm 3 mps 733 mmHg 70%
    13:00 +28°C° 0.5 mm 4 mps 733 mmHg 69%
    14:00 +28°C° 0.5 mm 4 mps 733 mmHg 68%
    15:00 +28°C° 0.6 mm 4 mps 733 mmHg 71%
    16:00 +28°C° 0.6 mm 3 mps 733 mmHg 75%
    17:00 +27°C° 0.6 mm 3 mps 733 mmHg 78%
    18:00 +26°C° 0.3 mm 3 mps 733 mmHg 82%
    19:00 +25°C° 0.3 mm 3 mps 733 mmHg 86%
    20:00 +22°C° 0.3 mm 3 mps 733 mmHg 90%
    21:00 +22°C° 1.6 mm 3 mps 733 mmHg 92%
    22:00 +21°C° 1.6 mm 2 mps 733 mmHg 93%
    23:00 +21°C° 1.6 mm 2 mps 733 mmHg 94%

    22 July, Sunday

    Time Temperature Precipitation Wind Pressure Humidity
    00:00 +20°C° 0.2 mm 2 mps 733 mmHg 95%
    01:00 +20°C° 0.2 mm 2 mps 733 mmHg 95%
    02:00 +20°C° 0.2 mm 2 mps 732 mmHg 96%
    03:00 +20°C° 0 mm 2 mps 733 mmHg 96%
    04:00 +20°C° 0 mm 2 mps 733 mmHg 96%
    05:00 +20°C° 0 mm 2 mps 733 mmHg 96%
    06:00 +21°C° 0.2 mm 3 mps 733 mmHg 93%
    07:00 +22°C° 0.2 mm 3 mps 733 mmHg 90%
    08:00 +25°C° 0.2 mm 3 mps 733 mmHg 87%
    09:00 +26°C° 0.7 mm 3 mps 733 mmHg 83%
    10:00 +27°C° 0.7 mm 3 mps 733 mmHg 78%
    11:00 +28°C° 0.7 mm 3 mps 733 mmHg 74%
    12:00 +28°C° 1.1 mm 3 mps 732 mmHg 73%
    13:00 +28°C° 1.1 mm 3 mps 732 mmHg 72%
    14:00 +28°C° 1.1 mm 3 mps 732 mmHg 71%
    15:00 +28°C° 1.9 mm 3 mps 732 mmHg 75%
    16:00 +28°C° 1.9 mm 2 mps 732 mmHg 79%
    17:00 +27°C° 1.9 mm 2 mps 732 mmHg 82%
    18:00 +26°C° 0.1 mm 2 mps 732 mmHg 85%
    19:00 +25°C° 0.1 mm 2 mps 732 mmHg 88%
    20:00 +24°C° 0.1 mm 2 mps 732 mmHg 91%
    21:00 +23°C° 0 mm 2 mps 732 mmHg 93%
    22:00 +23°C° 0 mm 2 mps 732 mmHg 94%
    23:00 +21°C° 0 mm 2 mps 732 mmHg 95%

    23 July, Monday

    Time Temperature Precipitation Wind Pressure Humidity
    00:00 +21°C° 0 mm 2 mps 733 mmHg 95%
    01:00 +21°C° 0 mm 2 mps 733 mmHg 96%
    02:00 +21°C° 0 mm 1 mps 733 mmHg 96%
    03:00 +21°C° 0 mm 1 mps 733 mmHg 96%
    04:00 +21°C° 0 mm 1 mps 733 mmHg 96%
    05:00 +21°C° 0 mm 1 mps 733 mmHg 96%
    06:00 +23°C° 0 mm 2 mps 734 mmHg 93%
    07:00 +24°C° 0 mm 2 mps 734 mmHg 89%
    08:00 +25°C° 0 mm 2 mps 734 mmHg 85%
    09:00 +26°C° 0 mm 2 mps 734 mmHg 81%
    10:00 +27°C° 0 mm 3 mps 734 mmHg 77%
    11:00 +27°C° 0 mm 3 mps 734 mmHg 73%
    12:00 +27°C° 0.2 mm 3 mps 734 mmHg 74%
    13:00 +28°C° 0.2 mm 3 mps 735 mmHg 74%
    14:00 +28°C° 0.2 mm 3 mps 735 mmHg 74%
    15:00 +27°C° 0.6 mm 3 mps 735 mmHg 76%
    16:00 +27°C° 0.6 mm 3 mps 735 mmHg 79%
    17:00 +26°C° 0.6 mm 3 mps 735 mmHg 82%
    18:00 +25°C° 0.4 mm 3 mps 735 mmHg 85%
    19:00 +24°C° 0.4 mm 3 mps 735 mmHg 89%
    20:00 +22°C° 0.4 mm 3 mps 735 mmHg 92%
    21:00 +21°C° 0 mm 3 mps 736 mmHg 94%
    22:00 +21°C° 0 mm 3 mps 736 mmHg 95%
    23:00 +20°C° 0 mm 3 mps 736 mmHg 96%
    Show more